Regional Weather Roundup
Issued by NWS Green Bay, WI

Home | Current Version | Previous Version | Text Only | Print | Product List | Glossary On
Versions: 1 2 3 4 5 6 7 8 9 10 11 12 13 14 15 16 17 18 19 20 21 22 23 24 25 26 27 28 29 30 31 32 33 34 35 36 37 38 39 40 41 42 43 44 45 46 47 48 49 50
000
ASUS43 KGRB 271359
RWRGRB

NORTH-CENTRAL AND NORTHEAST WISCONSIN REGIONAL WEATHER ROUNDUP
NATIONAL WEATHER SERVICE GREEN BAY WI
800 AM CST TUE JAN 27 2015

WIZ005-009-010>012-018-019-271500-
NORTH CENTRAL WISCONSIN

CITY           SKY/WX    TMP DP  RH WIND       PRES   REMARKS
IRONWOOD       CLOUDY    21  19  93 CALM      30.08R
MANITOWISH WTR NOT AVBL
ARBOR VITAE    NOT AVBL
EAGLE RIVER    NOT AVBL
LAND O LAKES   NOT AVBL
RHINELANDER    FOG       20  19  96 E5        30.09R VSB 1
PHILLIPS       NOT AVBL
ANTIGO         NOT AVBL
TOMAHAWK       NOT AVBL
MERRILL        NOT AVBL
$$

WIZ013-073-271500-
NORTHEAST WISCONSIN

CITY           SKY/WX    TMP DP  RH WIND       PRES   REMARKS
IRON MOUNTAIN  CLOUDY    16  13  88 CALM      30.12R
MARINETTE      CLOUDY    19  16  86 CALM      30.16R
$$

WIZ017-030-035>037-045-271500-
CENTRAL WISCONSIN

CITY           SKY/WX    TMP DP  RH WIND       PRES   REMARKS
MEDFORD        NOT AVBL
WAUSAU         CLOUDY    22  21  96 E3        30.10R FOG
MOSINEE        NOT AVBL
MARSHFIELD     CLOUDY    23  20  88 VRB3      30.11R FOG
WISC RAPIDS    CLOUDY    23  19  85 NE3       30.14R FOG
STEVENS POINT  NOT AVBL
WAUPACA        NOT AVBL
SHAWANO        NOT AVBL
CLINTONVILLE   NOT AVBL
$$

WIZ038-039-048-051-271500-
FOX VALLEY

CITY           SKY/WX    TMP DP  RH WIND       PRES   REMARKS
NWS GREEN BAY  CLOUDY    23  18  81 NE7       30.15R
APPLETON       CLOUDY    23  19  86 E7        30.13R
OSHKOSH        CLOUDY    24  18  77 NE7       30.14R
FOND DU LAC    CLOUDY    25  18  74 NE6       30.13R
$$

WIZ022-050-052-271500-
EAST CENTRAL WISCONSIN

CITY           SKY/WX    TMP DP  RH WIND       PRES   REMARKS
STURGEON BAY   CLOUDY    21  14  73 N5        30.17R
MANITOWOC      NOT AVBL
SHEBOYGAN      CLOUDY    25  15  66 NE7       30.13R
$$

LMZ563-521-522-541>543-271500-
LAKESHORE

STATION/POSITION TIME  TEMP    WIND        PRES    VSBY  WAVE
                       AIR SEA DIR/SP/G                  HT/PER
                 (UTC) (F)     (DEG/KT/KT) (MB)    (MI)  (FT/S)
SHEBOYGAN LKSHOR 1300   26      50/ 11/ 13 1021.1R
KEWAUNEE LKSHORE 1300   22     350/  4/  6 1020.1R
TWO RIVERS CG    1300   24                 1020.2      6   1
NORTHPORT PIER   1300   24     320/  7/  9 1021.3R
SISTER BAY LKSHO 1300   21        CALM       N/A
STURGEON BAY CG  1300   22     320/  4     1021.9      6   0
CHAMBERS ISLAND  1300   19     330/  2/  3 1021.7R
MENOMINEE LKSHOR 1300   20     360/  2     1021.9R
$$



USA.gov is the U.S. government's official web portal to all federal, state and local government web resources and services.